Weather History for FBFT - June, 2013

Change the Weather History Date:

Friday, June 21, 2013

  Actual Average Record
Temperature  
Mean Temperature 57 °F -  
Max Temperature 74 °F 72 °F 80 °F (2008)
Min Temperature 40 °F 41 °F 33 °F (2001)
Degree Days  
Heating Degree Days 8    
Growing Degree Days 7 (Base 50)    
Moisture  
Dew Point 39 °F    
Average Humidity 53    
Maximum Humidity 76    
Minimum Humidity 29    
Precipitation  
Precipitation 0.00 in - - ()
Sea Level Pressure  
Sea Level Pressure 30.28 in    
Wind  
Wind Speed 5 mph ()    
Max Wind Speed 15 mph    
Max Gust Speed -    
Visibility 6.0 miles    
Events      
Averages and records for this station are not official NWS values.
T = Trace of Precipitation, MM = Missing Value Source: Averaged Metar Reports

Daily Weather History Graph

Daily Weather History Graph

Search for Another Location

Airport or City:

Trip Planner

Search our weather history database for the weather conditions in past years. The results will help you decide how hot, cold, wet, or windy it might be!

Date:

Astronomy

Jun. 21, 2013 Rise Set
Actual Time 6:46 AM CAT 5:37 PM CAT
Civil Twilight 6:22 AM CAT 6:01 PM CAT
Nautical Twilight 5:54 AM CAT 6:29 PM CAT
Astronomical Twilight 5:27 AM CAT 6:56 PM CAT
Moon 3:46 PM CAT (6/21) 4:17 AM CAT (6/21)
Length of Visible Light 11h 39m
Length of Day
10h 50m
Waxing Gibbous, 94% of the Moon is Illuminated
Jun 21
Waxing Gibbous
Jun 23
Full
Jun 30
Last Quarter
Jul 8
New
Jul 16
First Quarter

Hourly Weather History & Observations

Time (CAT) Temp. Windchill Dew Point Humidity Pressure Visibility Wind Dir Wind Speed Gust Speed Precip Events Conditions
12:00 AM 51.8 °F - 37.4 °F 58% 30.30 in - ESE 4.6 mph - N/A   Clear
1:00 AM 48.2 °F - 37.4 °F 66% 30.30 in - SE 4.6 mph - N/A   Clear
2:00 AM 47 °F - 36 °F 54%  in 6 mi SSE 2.3 mph - -  
2:00 AM 46.4 °F - 35.6 °F 66% 30.27 in - Variable 2.3 mph - N/A   Clear
3:00 AM 44.6 °F - 35.6 °F 71% 30.27 in - Variable 2.3 mph - N/A   Clear
4:00 AM 41.0 °F 39.0 °F 32.0 °F 70% 30.27 in - East 3.5 mph - N/A   Clear
5:00 AM 41.0 °F 37.1 °F 33.8 °F 76% 30.24 in - SSE 5.8 mph - N/A   Clear
6:00 AM 42.8 °F 41.1 °F 33.8 °F 70% 30.30 in - South 3.5 mph - N/A   Clear
7:00 AM 41.0 °F 39.0 °F 33.8 °F 76% 30.30 in - South 3.5 mph - N/A   Clear
8:00 AM 47 °F - 37 °F 58%  in 6 mi SE 2.3 mph - -   Partly Cloudy
8:00 AM 46.4 °F - 37.4 °F 71% 30.33 in - Variable 2.3 mph - N/A   Clear
10:00 AM 64.4 °F - 44.6 °F 49% 30.36 in - East 15.0 mph - N/A   Clear
11:00 AM 68.0 °F - 44.6 °F 43% 30.33 in - ESE 9.2 mph - N/A   Clear
12:00 PM 69.8 °F - 44.6 °F 40% 30.30 in - East 9.2 mph - N/A   Clear
1:00 PM 71.6 °F - 46.4 °F 41% 30.27 in - SE 12.7 mph - N/A   Clear
2:00 PM 73.4 °F - 42.8 °F 33% 30.24 in - SE 10.4 mph - N/A   Clear
3:00 PM 75.2 °F - 41.0 °F 29% 30.21 in - East 3.5 mph - N/A   Clear
4:00 PM 73.4 °F - 41.0 °F 31% 30.24 in - SE 6.9 mph - N/A   Clear
5:00 PM 71.6 °F - 41.0 °F 33% 30.24 in - SE 8.1 mph - N/A   Clear
6:00 PM 66.2 °F - 41.0 °F 40% 30.24 in - SE 6.9 mph - N/A   Clear
7:00 PM 60.8 °F - 41.0 °F 48% 30.27 in - SE 4.6 mph - N/A   Clear
8:00 PM 58 °F - 39 °F 38%  in 6 mi ESE 5.8 mph - -   Partly Cloudy
8:00 PM 57.2 °F - 39.2 °F 51% 30.27 in - ESE 5.8 mph - N/A   Clear
9:00 PM 55.4 °F - 39.2 °F 54% 30.27 in - East 6.9 mph - N/A   Clear
10:00 PM 53.6 °F - 39.2 °F 58% 30.30 in - SE 4.6 mph - N/A   Clear
11:00 PM 53.6 °F - 39.2 °F 58% 30.30 in - SE 5.8 mph - N/A   Clear